Naples, FL

8:31 PM EDT on June 25, 2017 (GMT -0400)
Naples Municipal

Weather History for KAPF - November, 2010

Change the Weather History Date:

Tuesday, November 30, 2010

  Actual Average Record
Temperature  
Mean Temperature 78 °F 69 °F  
Max Temperature 86 °F 79 °F 89 °F (1982)
Min Temperature 69 °F 60 °F 34 °F (1959)
Degree Days  
Heating Degree Days 0 1  
Month to date heating degree days 7 11  
Since 1 July heating degree days 7 14  
Cooling Degree Days 13 5  
Month to date cooling degree days 233 224  
Year to date cooling degree days 3909 3819  
Growing Degree Days 28 (Base 50)    
Moisture  
Dew Point 68 °F    
Average Humidity 71    
Maximum Humidity 97    
Minimum Humidity 45    
Precipitation  
Precipitation 0.00 in 0.07 in 1.38 in (1974)
Month to date precipitation 0.59 2.04  
Year to date precipitation 43.61 50.44  
Snow  
Snow 0.00 in - - ()
Month to date snowfall 0.0  
Since 1 July snowfall 0.0  
Since 1 September snowfall 0.0  
Snow Depth 0.00 in    
Sea Level Pressure  
Sea Level Pressure 30.05 in    
Wind  
Wind Speed 8 mph (SE)    
Max Wind Speed 18 mph    
Max Gust Speed 24 mph    
Visibility 10 miles    
Events      
T = Trace of Precipitation, MM = Missing Value Source: NWS Daily Summary

Daily Weather History Graph

Daily Weather History Graph

Search for Another Location

Airport or City:

Trip Planner

Search our weather history database for the weather conditions in past years. The results will help you decide how hot, cold, wet, or windy it might be!

Date:

Astronomy

Nov. 30, 2010 Rise Set
Actual Time 6:56 AM EST 5:34 PM EST
Civil Twilight 6:31 AM EST 5:59 PM EST
Nautical Twilight 6:03 AM EST 6:28 PM EST
Astronomical Twilight 5:35 AM EST 6:56 PM EST
Moon 1:38 AM EST (11/30) 1:41 PM EST (11/30)
Length of Visible Light 11h 28m
Length of Day
10h 38m
Waning Crescent, 29% of the Moon is Illuminated
Nov 30
Waning Crescent
Dec 5
New
Dec 13
First Quarter
Dec 21
Full
Dec 27
Last Quarter

Hourly Weather History & Observations

Time (EST) Temp. Heat Index Dew Point Humidity Pressure Visibility Wind Dir Wind Speed Gust Speed Precip Events Conditions
12:53 AM 71.1 °F - 68.0 °F 90% 30.06 in 10.0 mi East 6.9 mph - N/A   Partly Cloudy
1:53 AM 72.0 °F - 68.0 °F 87% 30.05 in 10.0 mi East 9.2 mph - N/A   Scattered Clouds
2:53 AM 73.0 °F - 68.0 °F 84% 30.04 in 10.0 mi ESE 11.5 mph - N/A   Overcast
3:53 AM 73.4 °F - 66.2 °F 78% 30.04 in 10.0 mi ESE 4.6 mph - N/A   Mostly Cloudy
4:53 AM 72.0 °F - 68.0 °F 87% 30.04 in 10.0 mi East 4.6 mph - N/A   Clear
5:53 AM 70.0 °F - 68.0 °F 93% 30.05 in 10.0 mi ENE 4.6 mph - N/A   Clear
6:53 AM 69.8 °F - 66.2 °F 88% 30.06 in 10.0 mi East 4.6 mph - N/A   Clear
7:53 AM 71.1 °F - 69.1 °F 93% 30.07 in 10.0 mi East 6.9 mph - N/A   Clear
8:53 AM 75.9 °F - 69.1 °F 79% 30.08 in 10.0 mi ESE 10.4 mph - N/A   Clear
9:53 AM 80.1 °F 82.9 °F 69.1 °F 69% 30.10 in 10.0 mi SE 11.5 mph - N/A   Partly Cloudy
10:53 AM 82.0 °F 84.9 °F 68.0 °F 62% 30.09 in 10.0 mi SE 15.0 mph - N/A   Scattered Clouds
11:53 AM 82.9 °F 85.8 °F 68.0 °F 60% 30.06 in 10.0 mi SE 12.7 mph - N/A   Clear
12:53 PM 86.0 °F 87.6 °F 64.9 °F 49% 30.03 in 10.0 mi SSE 12.7 mph - N/A   Clear
1:53 PM 86.0 °F 86.8 °F 63.0 °F 46% 30.00 in 10.0 mi SSE 16.1 mph 20.7 mph N/A   Clear
2:53 PM 84.9 °F 86.1 °F 64.0 °F 49% 30.00 in 10.0 mi SSE 13.8 mph - N/A   Clear
3:53 PM 82.9 °F 84.6 °F 64.9 °F 54% 30.00 in 10.0 mi South 10.4 mph - N/A   Scattered Clouds
4:53 PM 80.1 °F 82.9 °F 69.1 °F 69% 30.01 in 10.0 mi SSW 9.2 mph - N/A   Partly Cloudy
5:53 PM 77.0 °F - 70.0 °F 79% 30.01 in 10.0 mi South 6.9 mph - N/A   Partly Cloudy
6:53 PM 75.9 °F - 70.0 °F 82% 30.02 in 10.0 mi South 5.8 mph - N/A   Partly Cloudy
7:53 PM 75.0 °F - 70.0 °F 84% 30.04 in 10.0 mi SSE 5.8 mph - N/A   Clear
8:53 PM 73.9 °F - 69.1 °F 85% 30.05 in 10.0 mi SE 5.8 mph - N/A   Clear
9:53 PM 73.0 °F - 69.1 °F 87% 30.07 in 10.0 mi SE 3.5 mph - N/A   Clear
10:53 PM 73.0 °F - 70.0 °F 90% 30.08 in 10.0 mi Calm Calm - N/A   Clear
11:53 PM 73.0 °F - 70.0 °F 90% 30.07 in 10.0 mi SE 3.5 mph - N/A   Clear